GFSNW_sfc_30mbdewp_162.txt.gz
Dewpoint
40 41 42 44 46 47 46 41 33 42 43 33 33 29 28 28 28 32 30 31 29 28 28 28 26 27 27 29 31 31 29 24 20 20 20 17 14 15 15 13 12 15 12 10
38 39 40 43 45 46 44 37 37 44 43 28 29 30 28 27 28 28 29 28 30 30 28 25 26 25 28 30 29 33 32 26 19 16 16 17 15 15 18 20 19 15 12 13
37 38 39 40 43 45 44 36 30 36 39 35 28 28 27 26 30 29 30 31 31 30 28 30 29 29 33 34 32 33 34 32 29 22 19 22 17 16 21 18 14 16 16 16
37 38 38 39 41 45 44 37 32 35 29 30 32 28 27 25 25 29 31 30 30 28 26 27 28 28 32 30 29 30 32 29 31 32 31 30 29 20 19 19 19 17 20 23
37 38 38 40 41 42 38 31 31 32 32 32 31 32 30 27 27 27 26 27 28 31 29 28 26 26 27 27 29 29 28 28 29 28 30 31 28 27 23 20 20 22 20 19
37 37 38 40 41 41 36 38 39 36 32 31 30 30 29 28 29 30 29 28 28 27 28 29 29 29 30 31 30 30 31 30 26 23 24 25 25 29 30 18 17 16 14 13
37 36 38 40 40 40 36 38 38 32 27 30 28 29 31 31 31 30 30 30 28 29 36 36 38 37 36 36 35 35 30 30 29 23 27 17 22 24 22 19 14 13 9 13
38 37 38 39 40 40 39 37 34 32 26 30 29 31 31 30 33 32 31 31 32 35 32 29 29 29 29 29 32 33 34 31 26 23 23 22 19 18 18 17 16 18 15 16
38 38 38 38 39 39 39 37 37 32 26 22 26 30 32 30 30 30 31 33 34 34 33 30 22 20 24 23 24 31 33 34 29 24 19 16 17 17 18 16 10 15 17 19
38 38 37 38 38 39 39 37 38 33 27 26 26 25 30 34 32 30 32 34 36 36 31 26 23 19 25 22 20 22 27 29 24 24 22 21 20 18 19 10 10 20 26 27
38 37 37 38 37 37 38 36 39 34 28 26 27 30 28 28 32 29 33 33 34 32 28 28 25 25 25 24 25 21 22 24 24 26 22 19 22 19 12 15 22 26 29 31
38 36 37 36 36 37 38 34 38 39 33 28 33 30 28 27 27 29 33 32 33 34 30 29 29 26 25 20 15 26 22 26 25 25 24 24 21 16 21 21 22 27 28 31
38 36 36 36 36 37 37 34 34 36 32 29 29 28 31 35 37 38 31 33 36 35 35 31 30 25 26 22 23 21 23 28 27 23 21 20 20 28 27 29 29 30 30 31
37 37 36 36 37 36 36 34 36 34 32 25 23 28 29 30 30 33 36 35 37 37 36 31 29 26 25 22 21 22 23 26 24 23 24 25 25 26 28 28 30 31 31 31
36 36 36 36 36 36 37 36 36 36 30 25 26 31 28 35 33 32 36 36 36 36 31 30 26 25 24 25 25 22 25 23 22 20 24 26 25 31 31 30 30 31 32 33
35 35 35 35 36 36 35 30 36 38 36 29 22 31 34 37 38 36 35 36 36 35 31 30 27 29 24 19 20 21 22 23 25 21 24 29 25 26 34 32 33 35 34 32
37 36 35 35 36 36 32 27 34 37 36 30 22 22 34 34 36 35 36 37 34 33 31 27 26 26 28 23 19 18 20 22 23 26 26 24 24 23 23 29 30 32 33 33
35 35 35 35 36 36 33 33 36 39 32 32 23 23 30 36 31 30 33 31 31 30 28 29 26 26 27 22 22 22 22 22 24 24 26 25 24 24 24 24 24 23 25 27
35 35 34 34 34 31 30 33 33 38 31 26 26 20 22 34 31 32 30 28 24 28 27 27 27 24 22 21 22 22 23 23 22 22 25 26 26 25 26 26 26 25 24 25
34 34 32 26 31 35 37 35 31 31 31 30 26 30 27 30 27 27 27 26 24 22 25 28 25 24 24 24 24 24 24 25 25 24 23 23 24 24 24 25 26 26 25 25
33 28 26 32 37 34 31 27 25 26 24 28 28 29 28 31 25 25 25 25 24 18 19 24 21 22 22 22 22 25 27 26 26 26 27 30 29 29 30 29 27 26 26 25
31 32 35 33 31 28 24 22 25 22 18 25 27 29 30 30 28 23 25 21 22 12 23 21 18 19 20 21 27 33 33 32 31 32 32 31 31 31 30 30 30 29 28 27
36 32 29 27 25 20 17 15 19 18 21 23 27 27 28 27 26 24 23 19 17 23 20 18 18 19 21 30 33 32 31 30 30 30 31 30 29 29 27 27 27 28 29 27
28 25 20 20 17 18 16 17 16 20 23 24 26 25 25 25 23 22 17 20 22 19 16 14 17 19 24 31 31 30 29 29 29 29 29 29 28 27 27 25 25 26 27 25
25 21 12 19 20 22 22 23 24 25 25 24 23 24 24 23 21 21 19 20 16 17 14 17 17 27 29 29 30 29 29 28 28 29 29 28 28 27 27 26 26 25 23 23
25 21 16 18 15 15 17 19 23 26 25 24 22 19 17 19 20 19 17 16 13 13 18 18 27 29 30 30 29 29 29 28 28 29 29 29 28 27 26 26 26 25 25 24
21 19 23 18 18 18 20 21 24 27 22 18 21 15 11 21 19 16 19 16 14 14 19 25 29 29 29 29 29 28 28 29 29 30 29 29 28 27 27 26 25 25 24 24

GFSNW_sfc_30mbdewp_165.txt.gz
Dewpoint
42 42 42 43 45 46 47 41 34 42 44 34 32 30 30 29 27 28 31 32 32 30 29 30 31 28 28 29 29 25 31 32 23 22 23 18 16 16 19 18 17 18 19 19
39 40 39 41 44 45 44 37 37 44 41 29 29 32 31 29 26 27 26 28 30 31 29 26 27 27 28 28 28 28 33 30 25 21 18 19 18 17 17 20 21 18 18 20
37 38 39 39 41 44 44 37 30 36 39 36 31 28 28 28 29 28 27 28 31 30 28 28 25 28 29 30 28 35 37 32 28 22 21 23 25 28 27 23 17 18 18 18
37 37 38 38 39 43 43 37 32 35 28 30 32 29 27 25 25 28 30 28 28 26 24 24 26 27 27 28 32 32 32 28 29 30 33 32 30 28 27 25 22 21 24 20
38 38 38 39 39 41 38 32 31 33 32 33 31 31 29 26 27 26 27 26 27 29 27 28 26 27 29 28 28 27 29 28 28 25 27 29 29 30 29 28 26 22 22 20
38 37 38 39 40 41 36 38 38 34 31 31 29 29 30 30 30 31 29 27 28 29 27 29 30 31 30 29 28 28 28 28 24 20 21 24 23 28 29 28 26 22 19 20
38 37 38 39 40 40 36 37 36 31 25 29 29 31 31 31 30 27 30 32 31 31 33 34 35 36 34 33 33 33 28 28 27 22 24 17 20 25 27 27 28 24 18 19
39 39 38 38 40 40 38 37 33 32 25 27 26 28 29 30 30 29 32 35 34 35 33 30 27 27 28 29 33 32 32 29 23 21 20 22 23 23 21 23 22 29 25 21
40 40 39 39 39 39 40 37 36 31 24 20 25 25 25 27 29 28 30 33 33 34 32 29 22 17 18 18 25 32 30 32 27 26 20 15 18 20 21 21 17 17 19 19
42 41 39 39 38 39 38 36 37 32 27 27 24 24 24 32 31 29 31 33 34 34 30 25 22 21 26 22 19 23 27 28 24 24 22 23 24 22 20 14 12 19 21 22
40 40 40 39 38 38 38 35 38 33 28 26 26 27 24 23 20 22 28 28 33 32 26 27 25 24 25 25 24 21 19 20 22 26 23 19 26 23 19 18 21 25 27 29
41 41 40 39 37 37 39 32 38 38 32 27 31 31 28 28 30 27 30 26 30 31 25 26 30 26 28 25 20 24 22 23 22 26 26 29 30 25 24 23 19 23 26 30
41 40 39 37 36 36 37 33 35 35 29 26 28 27 31 33 33 31 25 26 27 33 35 31 29 25 27 22 23 22 24 29 25 25 27 28 28 30 30 29 25 28 30 32
39 39 39 39 37 36 37 34 34 32 30 24 22 29 28 30 31 30 33 31 33 34 36 31 28 27 28 22 22 22 23 27 25 26 26 27 29 30 28 29 29 31 31 33
39 39 39 38 35 36 37 36 35 35 27 23 25 29 27 31 32 30 30 31 30 29 27 29 28 31 28 25 25 23 24 23 24 22 24 24 24 29 33 30 29 31 32 33
38 38 37 36 36 36 34 29 34 37 35 28 20 25 29 32 34 32 31 30 31 31 28 27 31 32 28 26 21 21 23 25 26 22 25 28 29 28 28 33 32 34 34 33
36 36 34 36 36 35 28 25 33 38 36 29 23 20 27 31 29 33 34 33 32 29 28 29 28 30 31 25 22 22 21 21 23 24 26 24 25 23 24 27 31 33 34 35
35 35 35 35 35 35 31 34 38 38 33 31 22 19 25 35 30 29 35 32 33 32 30 31 29 29 29 23 23 23 23 23 23 24 26 26 26 25 25 25 25 24 24 25
34 34 34 34 34 30 29 34 36 37 31 24 23 17 10 33 31 32 30 32 27 31 29 29 28 24 20 21 21 21 21 22 22 24 24 25 25 25 26 26 26 26 25 26
34 31 26 25 30 34 34 33 29 29 30 28 23 26 23 29 29 28 28 28 26 23 26 28 26 24 25 24 25 25 24 25 25 24 23 24 24 25 26 26 27 27 27 27
30 27 24 29 35 32 27 22 23 23 23 27 26 21 19 31 26 26 26 24 23 14 21 23 22 21 23 24 22 26 30 30 28 27 28 31 31 31 32 31 31 31 30 29
28 30 34 34 30 25 21 20 24 23 19 25 26 28 29 31 32 27 25 21 21 12 25 22 19 19 21 21 25 33 32 31 30 31 31 31 31 31 30 29 29 29 30 30
34 32 28 23 22 20 18 14 19 20 21 24 29 28 30 29 29 25 23 18 16 23 20 18 18 20 21 23 32 32 30 30 29 29 29 30 30 30 29 28 28 26 26 26
26 23 20 20 18 20 19 18 17 21 23 24 28 26 26 25 23 22 16 20 22 18 15 13 17 20 21 28 31 30 29 29 29 29 29 29 29 29 28 28 27 24 25 25
27 24 14 18 21 21 23 23 23 25 26 27 26 25 25 23 21 21 21 19 16 17 13 17 18 21 27 28 30 30 28 28 28 29 29 28 28 28 28 28 26 24 22 22
27 24 17 19 17 16 17 19 23 26 25 25 22 19 18 19 20 19 16 15 11 12 20 20 20 25 29 29 29 29 29 29 28 29 29 29 28 28 28 27 26 24 23 22
22 20 24 19 17 18 19 22 25 27 23 20 20 12 11 21 19 16 19 16 14 16 18 20 25 28 29 29 29 29 28 28 28 29 29 29 28 28 27 27 25 25 24 24

GFSNW_sfc_30mbdewp_168.txt.gz
Dewpoint
43 44 44 44 44 46 46 42 34 46 47 33 32 31 28 28 25 29 27 31 33 34 33 32 31 29 30 31 29 26 25 31 26 23 24 23 21 19 20 22 23 20 23 24
41 42 42 41 43 44 43 37 37 44 44 29 30 29 30 29 26 25 25 28 28 27 27 24 24 22 26 28 26 30 36 31 23 18 20 22 22 22 22 21 22 22 24 24
39 40 40 40 41 43 43 37 30 37 38 38 29 27 25 28 30 27 25 24 23 22 22 24 25 20 20 26 30 32 34 32 29 24 21 27 29 24 27 30 27 24 23 21
38 38 38 40 39 41 42 37 32 35 29 30 32 28 30 25 25 27 27 25 24 21 20 19 21 22 21 23 27 26 29 27 24 25 24 22 25 28 28 27 29 27 26 23
38 38 39 39 40 40 39 33 32 35 27 32 32 31 30 24 23 26 24 24 20 23 22 20 17 19 22 21 25 25 25 26 24 25 24 24 24 25 27 26 24 24 24 24
38 38 39 39 40 40 34 38 38 34 30 26 26 28 28 30 29 33 28 30 29 26 23 26 29 28 27 26 25 24 24 24 24 21 20 19 22 25 24 22 22 23 23 24
39 39 39 39 40 39 33 35 35 31 24 29 27 28 30 29 32 31 31 31 32 31 36 36 34 32 29 28 27 27 24 23 24 19 19 16 15 16 18 18 20 23 26 25
40 40 39 39 40 40 35 36 33 30 23 23 27 27 25 27 28 30 28 26 28 34 32 29 28 25 26 24 25 25 25 25 23 19 13 11 11 13 15 21 19 20 23 24
41 40 40 39 40 39 39 35 35 29 21 14 18 21 24 23 25 26 27 29 33 33 26 28 21 17 14 12 20 29 28 29 27 23 17 9 10 18 19 22 20 22 20 25
41 41 40 39 39 39 39 36 36 30 25 21 20 17 17 21 28 26 31 31 29 34 27 23 18 16 16 15 12 18 24 27 24 22 22 25 19 24 22 17 18 24 20 22
40 40 40 40 39 38 39 34 38 30 26 22 25 24 20 20 23 19 25 20 24 29 27 27 25 25 20 20 18 16 15 21 20 23 20 15 30 24 20 27 27 26 25 26
41 41 41 40 39 36 38 31 36 36 29 24 31 29 28 24 24 25 26 19 19 25 21 24 19 16 21 27 20 23 22 21 18 23 22 30 31 31 31 31 31 28 28 27
41 41 40 39 39 38 37 32 36 35 28 25 25 24 26 30 29 28 24 22 23 22 27 25 22 19 26 25 21 20 22 25 24 26 24 25 26 33 34 34 31 31 30 31
41 41 41 40 40 39 38 33 34 30 25 21 17 24 26 27 28 28 28 26 25 25 28 28 28 23 24 20 29 22 21 23 22 21 22 23 26 31 33 33 30 29 28 32
40 41 40 40 41 39 38 35 33 32 25 19 20 24 26 28 28 27 27 27 27 27 25 23 21 24 29 31 25 22 21 20 19 20 21 25 23 22 29 33 32 31 30 33
37 38 39 41 39 39 36 31 35 35 33 25 17 20 22 22 21 23 25 28 28 28 25 24 22 22 27 18 15 20 21 21 21 20 20 24 26 25 26 26 25 31 33 33
38 39 38 39 38 37 27 25 32 35 35 29 18 16 20 24 21 24 28 30 33 33 27 24 21 25 29 24 18 19 22 21 21 21 23 21 19 18 19 20 23 29 31 33
38 39 37 35 37 35 29 35 38 37 31 31 19 16 19 27 24 26 30 31 31 32 27 23 21 20 23 19 18 22 22 20 19 21 20 22 22 23 23 22 23 25 24 24
35 35 35 35 31 29 28 36 37 37 31 23 24 14 11 31 28 32 31 32 26 30 24 21 24 21 22 22 22 20 19 18 17 19 21 21 22 22 20 21 22 23 23 24
35 32 27 27 30 35 34 34 28 29 30 29 21 20 20 25 28 26 28 30 28 24 25 26 26 20 22 23 22 21 22 22 22 23 20 23 23 23 25 25 26 27 27 29
28 29 26 32 35 31 29 23 22 22 21 23 21 19 18 26 20 22 28 28 28 22 26 24 24 20 22 22 21 22 26 29 28 28 27 28 29 31 32 32 33 32 32 32
29 29 34 32 27 24 21 19 21 21 14 20 23 23 21 25 31 28 28 24 23 15 26 23 16 19 21 21 21 29 32 32 32 31 31 31 30 31 31 31 31 31 31 30
34 29 27 25 24 19 15 13 15 18 23 24 27 28 28 31 31 28 26 21 19 24 20 16 15 20 19 23 29 32 32 32 31 30 29 30 30 31 30 30 31 30 29 29
24 22 19 18 20 21 22 17 17 22 24 24 26 30 29 29 27 27 21 22 22 17 16 12 17 20 23 27 31 31 32 31 31 30 30 30 29 30 31 30 30 28 28 28
24 26 19 21 23 25 26 26 25 26 27 27 29 30 28 25 24 23 21 20 16 16 12 17 22 24 25 28 30 31 32 30 30 31 31 30 29 30 30 31 30 29 27 26
29 26 22 22 22 23 25 26 27 28 28 31 31 26 22 22 22 19 17 13 10 13 20 25 25 26 30 31 32 31 31 32 32 32 32 31 30 29 31 30 29 29 27 25
24 24 26 25 24 24 26 26 27 29 28 27 21 16 15 21 18 15 18 17 16 20 24 27 26 30 31 31 31 31 30 31 31 32 31 32 32 31 29 29 30 27 27 26

GFSNW_sfc_30mbdewp_174.txt.gz
Dewpoint
44 45 45 45 45 46 46 40 31 42 48 36 32 31 33 32 29 35 34 31 37 35 35 34 36 36 37 37 32 30 32 31 27 25 25 24 23 27 27 27 29 28 28 26
42 44 44 44 45 45 39 36 36 43 44 29 30 33 34 32 30 32 35 30 31 35 34 30 33 32 37 38 36 35 36 32 25 21 23 24 26 30 34 34 31 30 28 26
41 41 42 43 43 43 41 35 31 36 39 37 33 31 31 31 36 35 36 35 28 28 28 33 30 28 33 32 34 36 34 30 26 21 21 23 29 28 28 31 27 28 29 31
40 41 42 42 42 41 39 35 31 33 30 31 31 33 32 31 31 35 32 32 30 23 23 23 29 31 29 28 29 31 32 26 25 24 22 21 22 21 20 18 25 25 26 24
39 40 41 40 40 39 37 33 29 30 29 26 28 31 28 28 31 32 31 29 27 23 22 23 22 21 23 21 20 22 29 27 27 25 22 20 18 18 16 15 15 16 17 20
38 39 40 41 41 39 29 27 33 34 27 25 26 26 31 27 26 27 30 33 32 32 31 34 34 30 29 28 24 22 22 26 26 22 22 18 20 21 20 18 17 17 15 16
38 38 39 40 40 39 28 24 28 30 24 23 23 24 29 31 32 31 33 32 32 35 37 33 32 29 28 27 24 23 21 22 23 22 21 16 17 13 12 11 11 11 11 11
39 39 38 39 40 40 34 30 34 32 26 23 27 30 31 30 33 31 31 30 31 36 32 29 27 24 21 19 20 20 21 22 21 20 20 17 16 13 11 14 17 18 25 26
40 39 39 39 39 39 36 32 33 34 29 23 30 30 30 26 24 25 29 33 34 33 32 29 21 17 15 12 14 17 19 23 23 21 16 10 13 12 22 31 21 33 31 28
40 40 39 39 39 39 37 30 33 34 26 22 21 20 25 17 18 20 22 30 24 30 28 23 19 16 15 13 12 14 27 26 23 24 23 23 17 26 29 18 26 31 31 27
39 41 40 40 39 39 37 30 33 34 28 25 22 21 18 14 14 13 17 23 26 24 22 21 22 23 25 21 18 14 12 20 24 22 20 15 33 28 28 30 29 29 30 30
40 41 40 40 41 40 38 28 31 34 33 29 30 28 27 26 23 22 22 24 18 24 23 25 23 21 17 19 18 21 20 25 26 24 20 32 34 33 30 27 29 32 34 33
39 40 40 40 40 40 38 33 38 36 31 28 25 23 24 26 26 25 21 15 17 24 28 25 22 16 18 17 20 27 22 28 26 29 20 27 33 36 34 31 31 33 34 35
39 40 41 40 39 41 40 37 39 38 32 25 21 23 22 24 25 25 25 23 23 22 24 25 23 20 19 16 19 25 20 19 25 28 22 23 26 26 26 24 31 30 31 30
40 40 41 40 40 39 40 38 38 40 35 28 24 22 21 21 22 22 22 23 22 21 20 21 20 19 20 19 19 17 18 18 29 27 26 25 22 25 26 21 18 27 30 28
39 40 40 40 38 39 36 31 37 39 38 31 20 19 17 18 20 21 21 21 21 23 23 21 21 20 19 15 13 14 16 20 27 19 21 19 19 21 21 18 16 16 17 19
39 39 40 40 39 38 33 32 34 36 35 29 21 16 16 17 16 18 20 21 20 21 23 22 22 20 20 20 18 16 16 16 14 15 19 20 19 17 17 14 15 16 17 18
39 39 39 39 39 37 34 35 36 35 28 26 20 15 13 17 20 21 22 21 22 22 21 22 21 21 21 20 20 20 20 20 18 19 19 17 15 15 14 15 15 15 16 17
37 38 38 36 34 32 34 37 35 35 30 22 19 13 10 14 19 24 25 26 22 25 22 23 20 20 21 17 13 13 16 16 17 19 13 14 14 15 16 16 16 19 22 24
38 37 33 29 35 36 36 31 30 30 27 27 20 16 17 19 22 25 24 25 22 19 20 20 21 19 19 18 15 15 17 22 20 16 16 16 18 19 22 24 27 29 32 35
31 31 30 32 36 29 27 24 21 21 19 19 16 14 14 19 16 18 28 21 25 19 16 20 16 17 20 18 18 16 19 20 18 19 17 20 25 27 28 29 29 32 33 34
30 29 30 29 27 24 20 17 17 16 10 8 10 14 13 16 22 21 20 17 17 16 28 21 16 17 17 19 20 20 18 20 24 24 25 28 29 30 31 31 32 33 32 31
27 25 25 23 22 17 13 10 10 10 13 18 24 23 27 28 26 24 23 21 21 25 23 23 20 23 20 20 21 20 20 25 27 28 28 29 31 33 32 31 32 32 32 31
22 23 18 16 16 14 10 10 11 19 24 27 28 27 28 30 26 25 24 26 20 21 19 16 22 20 22 24 29 32 32 32 33 33 34 32 30 30 31 31 31 30 30 32
21 19 14 14 14 20 26 30 28 28 29 30 28 26 27 27 27 26 25 18 18 15 18 28 26 26 29 29 29 31 34 31 31 33 33 32 31 31 31 32 31 30 31 30
22 21 21 22 24 26 28 29 28 31 32 33 31 27 26 25 26 20 18 11 7 16 26 28 29 28 30 32 35 34 34 34 34 33 34 34 33 32 32 33 31 31 31 29
20 21 25 26 25 25 27 28 27 30 32 27 29 25 24 24 23 20 15 15 22 27 27 26 26 28 35 35 33 32 32 33 33 33 33 33 32 32 31 30 30 31 30 30

GFSNW_sfc_30mbdewp_177.txt.gz
Dewpoint
44 43 44 45 45 44 44 38 31 40 48 34 32 31 34 33 32 34 35 35 34 36 36 34 36 35 37 38 36 32 36 34 30 29 29 28 30 33 32 30 30 32 31 27
43 43 42 43 44 43 40 36 35 40 44 28 29 32 34 34 33 32 37 35 34 36 35 32 34 35 39 37 36 35 34 32 27 24 24 30 32 34 35 33 32 28 27 27
43 43 42 40 42 42 41 35 29 35 39 37 32 31 31 31 37 35 34 36 36 34 34 35 31 33 36 36 36 35 32 31 28 23 24 24 22 24 26 31 25 25 26 27
42 42 41 41 42 41 40 35 31 32 28 30 32 32 31 30 30 35 33 34 33 33 30 32 31 31 33 35 36 34 32 26 26 25 24 24 22 21 21 23 27 24 22 22
42 42 42 41 41 41 37 31 31 31 27 28 29 31 29 27 28 32 32 32 31 31 30 31 30 30 31 28 33 33 33 28 28 26 26 26 23 22 21 20 20 19 18 18
41 40 41 40 39 38 35 34 35 31 30 27 27 27 27 30 32 32 31 30 30 30 32 35 36 36 33 29 27 28 27 29 26 21 23 23 21 22 22 21 21 20 19 19
40 40 40 41 41 39 34 30 30 29 22 22 23 23 29 29 30 29 31 33 33 34 38 38 36 34 35 34 30 31 26 29 28 23 21 15 17 21 22 21 21 17 16 25
40 40 40 41 40 39 37 34 33 31 24 24 26 28 28 30 32 31 32 34 35 37 33 30 27 28 27 29 32 28 26 25 22 19 18 17 18 18 16 19 20 30 29 29
40 40 39 39 38 38 38 36 35 34 28 27 31 29 29 26 26 28 31 35 35 34 32 28 20 19 21 15 17 22 23 23 22 20 18 12 14 22 28 28 19 34 33 31
40 40 39 39 38 38 38 34 35 33 29 29 28 27 26 30 24 25 26 26 25 29 24 21 22 19 16 14 15 19 20 23 23 23 21 20 27 30 31 18 22 32 33 32
40 40 40 40 39 38 38 35 35 32 30 29 28 27 25 25 17 14 22 22 28 26 18 18 22 20 23 20 21 19 17 18 22 25 22 20 32 30 24 30 33 32 33 33
40 39 40 40 39 39 39 34 33 35 31 29 33 31 29 28 27 25 23 24 24 25 23 24 24 21 20 19 18 25 22 25 22 23 24 33 35 32 34 32 30 31 34 35
40 40 40 40 40 39 38 35 35 34 31 30 29 27 28 28 26 27 23 21 23 24 27 26 24 20 18 15 18 22 24 27 21 25 30 32 33 35 36 34 31 32 34 35
40 40 41 40 40 40 40 37 39 37 34 26 24 27 27 27 28 27 27 26 26 25 27 26 24 20 22 20 19 21 23 23 21 21 26 32 34 36 35 34 32 30 31 31
40 40 41 40 39 40 41 39 39 39 34 27 27 25 24 23 24 24 24 25 25 24 21 21 21 21 19 20 19 17 18 17 20 24 30 31 32 33 29 23 25 31 31 30
39 39 39 39 39 41 37 31 37 39 38 31 22 26 22 24 23 23 23 24 25 25 23 22 22 22 20 20 19 17 18 19 20 24 28 30 34 30 21 20 20 18 24 19
39 39 39 40 40 38 33 31 36 38 38 30 23 21 21 20 22 24 24 24 23 23 23 23 23 22 23 21 17 17 18 17 18 18 18 20 21 20 16 15 15 16 17 17
39 39 40 39 38 37 34 35 38 38 33 29 23 18 16 19 19 18 24 22 23 23 22 23 22 23 22 19 19 22 22 20 19 18 20 22 22 15 14 14 16 19 25 31
37 39 39 38 35 32 31 38 39 38 33 24 22 17 12 22 21 23 23 24 19 24 21 21 22 20 19 22 17 16 18 20 20 20 20 18 16 16 16 23 28 30 34 35
38 37 32 29 33 35 35 34 30 29 29 29 23 22 17 20 20 21 21 23 20 19 22 22 21 19 19 19 20 20 19 17 16 17 17 16 17 26 28 30 31 33 34 34
33 32 31 35 36 34 30 25 23 22 21 22 21 20 18 22 16 17 23 19 22 19 19 19 20 18 19 21 20 20 21 22 25 20 20 27 30 30 30 31 33 34 33 32
33 31 33 35 32 27 22 20 20 20 15 15 17 17 19 19 21 16 21 19 17 14 25 24 19 19 27 24 22 21 20 21 22 28 31 31 32 32 32 32 31 31 31 30
31 28 26 25 24 19 16 12 13 13 15 23 25 22 24 25 26 22 22 20 19 24 20 20 26 26 28 28 25 22 20 20 30 30 32 33 32 31 30 29 29 29 28 30
24 22 15 19 17 17 14 13 17 23 23 25 26 27 27 28 26 24 21 21 24 20 19 19 25 28 32 33 32 29 30 31 33 32 31 29 28 28 29 29 30 30 30 30
22 20 16 16 16 20 24 27 27 28 30 29 29 28 27 26 24 25 24 21 18 20 18 28 28 30 31 32 33 31 27 29 32 32 30 30 29 29 30 31 32 30 29 29
23 21 21 23 23 23 26 28 27 30 31 31 30 26 23 23 26 23 20 19 13 22 26 29 28 28 31 33 32 32 32 32 32 33 32 32 31 31 31 31 31 30 30 30
21 20 24 24 25 26 27 28 29 32 31 27 27 22 24 26 25 22 19 18 28 26 29 30 30 30 32 33 32 31 31 31 32 33 33 31 31 30 30 29 29 30 31 30